COSMOS 1275 DEB, 42203

Orbit data source: Space-Track

COSMOS 1275 DEB, 42203 is space debris in LEO originally from a launch on Thu, 04 Jun 1981 UTC launched from the Plesetsk Missile And Space Complex (PKMTR). Debris objects in space refer to the collection of defunct objects orbiting the Earth. Examples of debris include non-operational satellites, rocket bodies, and fragments generated from explosions, collisions, or faulty payload assembly.

Loading next visibility...
Identifier
42203, 1981-053TT
Orbit
LEO
Country
Flag of CISCIS
Related business
Manufacturer
Unknown
Mission
Spacecraft
Bus & Motor
Unknown
Mass
Unknown
Launch date (UTC)
1981-06-04 (45 years ago)
Launch vehicle
Unknown
Launch site
Plesetsk Missile And Space Complex (PKMTR)
Object type
Payload
Rocket body
Debris
Shape & HBR
Unknown shape, 0.1 m
Radar Cross Section
Small (<0.1 m²)

Expand to show TLE details & history
Last TLE update: 1 week ago

TLE from 1 week ago
0 COSMOS 1275 DEB
1 42203U 81053TT  26199.43590458  .00000526  00000-0  50406-3 0  9994
2 42203  82.9922 241.9046 0114987 344.8992  79.3937 13.75809725632758
Epoch: 2026-07-18T10:27Z
TLE epoch observation values (Epoch: 2026-07-18T10:27:42.155Z)
Latitude
64.75081°
Longitude
163.75805°
Altitude
975.329 km
Speed
7.377 km/s
True Right ascension
17h 07m 43s
True Declination
64° 37' 18"
Sunlit
Object was in daylight at epoch
Visualization orbit readout
Latitude
Unknown
Longitude
Unknown
Altitude
Unknown
Speed
Unknown
Apparent Right ascension
Unknown
Apparent Declination
Unknown
Sunlit
N/A
Visualization observer readout
Local Sidereal Time
00:11:11
Azimuth
Unknown
Elevation
Unknown
Doppler factor
Unknown
Orbital elements
Apogee altitude
1,060.494 km
Perigee altitude
891.37 km
Semi-major axis
7,354.069 km
Eccentricity
0.0115
Inclination
82.9922°
RAAN
241.9046°
Arg. of periapsis
344.8992°
True anomaly
80.69217°
Mean anomaly
79.3937°
Eccentric anomaly
80.0426°
Mean motion
3.44153 °/min
Orbital period
104.6 mins
BSTAR
0.00050406
Loading maneuver chart data...
Computing Atmospheric mass density...
Loading historical data...
Loading historical data...
Loading historical data...
Loading historical data...
Loading historical data...
Loading historical data...
Loading historical data...

Documentation

Showing up to 5 results
|